Location: Goheenville
(40.9070°N, 79.3720°W)
Time: 20:12:32
(UTC-05:00)

Daily predictions for brighter satellites

Satellite Brightness Start Highest point End
(mag) Time Altitude Azimuth Time Altitude Azimuth Time Altitude Azimuth
Cosmos 372 Rocket 3.9 17:46:04 10° NNW 17:51:10 67° ENE 17:56:14 10° SSE
IDEFIX/ARIANE 42P 2.9 17:47:11 10° S 17:52:23 76° WSW 17:57:39 10° NNW
Cosmos 540 Rocket 3.5 17:48:48 10° SSW 17:53:58 89° WNW 17:59:11 10° NNE
Aureole 2 Rocket 2.7 17:50:27 10° S 17:54:10 68° ESE 17:58:14 10° NNE
CORIOLIS 4.2 17:52:17 10° SSE 17:57:38 90° NNW 18:03:02 10° NNW
Cosmos 1515 Rocket 4.2 17:54:17 10° NNW 17:58:42 62° W 18:03:04 10° S
USA 215 4.0 17:55:08 10° E 18:00:57 35° NNE 18:06:45 10° NW
Cosmos 2058 2.9 17:57:16 10° S 18:01:18 60° E 18:05:21 10° NNE
Cosmos 1980 4.1 17:56:27 10° SSW 18:02:06 69° WNW 18:07:47 10° NNE
Lacrosse 5 4.0 18:01:48 10° NNW 18:04:03 13° N 18:06:19 10° NNE
Cosmos 1805 Rocket 4.1 18:00:51 10° SSE 18:04:59 39° E 18:09:08 10° NNE
Cosmos 1461 2.9 18:03:25 10° SSW 18:07:33 63° ESE 18:11:36 10° NE
SKYMED 2 3.8 18:03:33 10° NNE 18:07:47 50° E 18:12:00 10° S
Cosmos 1900 4.5 18:03:04 10° NNW 18:07:56 53° NE 18:12:49 10° SE
Meteor 1-11 4.2 18:08:05 10° S 18:13:46 83° E 18:19:34 10° NNE
Cosmos 1626 2.8 18:10:43 10° SSE 18:14:06 34° E 18:17:32 10° NNE
Sich 1 3.7 18:14:01 10° SSE 18:18:02 35° E 18:22:04 10° NNE
Cosmos 2219 Rocket 3.7 18:14:07 10° WSW 18:19:11 34° WNW 18:24:17 10° N
CZ-2C R/B 4.0 18:15:27 10° SSW 18:20:04 39° W 18:24:35 10° NNW
Lacrosse 5 rocket 2.3 18:16:55 10° NW 18:20:34 46° SW 18:24:25 10° SSE
Cosmos 1356 Rocket 3.7 18:17:35 10° SSE 18:21:21 42° E 18:25:08 10° NNE
ALOS 3.5 18:21:08 10° ESE 18:24:32 20° ENE 18:27:56 10° NNE
Cosmos 2333 Rocket 3.6 18:20:46 10° SW 18:25:59 38° WNW 18:31:15 10° N
Cosmos 1633 Rocket 3.5 18:24:16 10° SSE 18:28:22 39° E 18:32:28 10° NNE
Cosmos 1726 3.9 18:25:01 10° NNW 18:28:31 36° W 18:31:59 10° SSW
CENTAUR R/B 4.4 18:27:39 10° W 18:32:37 23° NNW 18:38:02 10° NNE
Cosmos 2278 Rocket 3.6 18:28:26 10° NW 18:33:45 42° WSW 18:39:02 10° S
Coronas F rocket 2.6 18:32:25 10° SSE 18:33:37 20° SE 18:33:37 20° SE
Cosmos 1455 2.3 18:32:32 10° N 18:36:14 49° E 18:39:57 10° SSE
FAST Rocket 3.8 18:36:12 10° S 18:38:46 64° E 18:41:40 10° NNE
USA 229 DEB 3.8 18:35:05 10° SSW 18:41:42 54° ESE 18:47:09 16° NE
USA 229 3.8 18:35:11 10° SSW 18:41:48 54° ESE 18:47:12 16° NE
Abrixas 4.0 18:39:24 10° WNW 18:41:56 25° NNW 18:42:57 21° NNE
Cosmos 1703 3.5 18:41:03 10° SSW 18:44:55 69° W 18:48:49 10° N
Cosmos 1184 Rocket 2.7 18:43:03 10° S 18:46:22 66° E 18:48:43 18° NNE
SJ-6B 2.9 18:44:50 10° SSE 18:48:51 57° ENE 18:52:55 10° N
Spot 2 Rocket 4.1 18:45:04 10° SE 18:49:33 33° ENE 18:54:03 10° N
Iridium 4 Rocket 3.3 18:48:57 10° SSE 18:53:12 45° E 18:57:11 10° NNE
Cosmos 1707 Rocket 3.7 18:49:52 10° NNW 18:54:11 74° W 18:58:31 10° S
COSMO-SKYMED 1 3.6 18:51:37 10° N 18:55:48 47° WNW 18:59:57 10° SW
SL-19 R/B 4.4 18:51:20 10° SE 18:56:58 52° ENE 19:02:22 10° N
Cosmos 2237 Rocket 4.0 18:52:47 10° WSW 18:57:33 28° NW 19:02:23 10° N
Cosmos 2369 Rocket 3.2 18:56:48 10° N 19:01:00 25° NE 19:01:00 25° NE
Cosmos 1666 Rocket 3.9 19:00:09 10° SSW 19:04:27 65° W 19:08:49 10° N
H-2A ROCKET BODY 4.1 18:39:28 10° WSW 19:04:36 41° SSW 19:09:18 17° SE
SL-16 R/B 2.9 19:00:13 10° SW 19:05:42 53° WNW 19:11:15 10° NNE
FREGAT/IRIS 2.6 19:04:25 10° S 19:07:27 81° WSW 19:10:32 10° NNW
Resurs 01 Rocket 1.6 19:12:15 33° SE 19:14:01 56° ENE 19:18:23 10° N
Cosmos 923 Rocket 3.8 19:09:08 10° S 19:14:19 73° ESE 19:16:59 29° NNE
Cosmos 1933 Rocket 3.5 19:11:36 10° S 19:15:58 60° E 19:16:31 55° ENE
Cosmos 1680 Rocket 3.4 19:15:36 10° S 19:20:45 64° ESE 19:22:05 47° NE
Cosmos 1655 Rocket 4.2 19:16:22 10° SSE 19:22:23 46° E 19:24:06 38° NE
CZ-4C R/B 4.2 19:18:58 10° NNW 19:23:28 19° NNE 19:23:28 19° NNE
Lacrosse 4 Rocket 1.4 19:20:12 10° NNW 19:24:15 75° WSW 19:25:17 48° S
Cosmos 1627 Rocket 4.4 19:18:38 10° S 19:24:43 64° E 19:30:47 10° NNE
Tiangong 1 3.4 19:27:35 10° SW 19:28:39 19° SW 19:28:39 19° SW
FENGYUN 3A 3.5 19:25:03 10° SSE 19:30:24 86° ENE 19:35:49 10° NNW
Cosmos 1869 3.9 19:26:34 10° NNW 19:30:33 56° W 19:34:30 10° S
NOSS 3-1 (C) 3.6 19:27:54 10° S 19:32:51 45° SE 19:32:51 45° SE
Cosmos 1470 Rocket 3.7 19:33:10 10° SSW 19:37:30 70° W 19:38:13 57° NNW
USA 215 3.2 19:40:52 40° SE 19:43:30 86° SW 19:50:06 10° NW
Cosmos 1943 3.8 19:38:01 10° S 19:41:55 41° SSE 19:41:55 41° SSE
ATLAS 3B R/B 4.5 19:42:47 10° N 19:45:53 15° NNE 19:45:53 15° NNE
Lacrosse 5 4.0 19:45:30 10° NNW 19:47:19 16° N 19:47:19 16° N
ATLAS 5 CENTAUR R/B 3.8 19:44:34 10° NNW 19:47:23 23° N 19:47:23 23° N
Cosmos 2026 Rocket 3.9 19:45:38 10° S 19:51:51 88° W 19:55:59 22° N
Cosmos 2112 Rocket 4.1 19:52:05 10° SSW 19:57:11 71° WNW 19:57:11 71° WNW
ALOS 3.4 19:57:15 10° S 20:01:40 42° W 20:06:06 10° NNW
Cosmos 1943 Rocket 4.2 20:01:38 10° N 20:02:44 16° N 20:02:44 16° N
Cosmos 2369 Rocket 4.0 20:40:19 10° NW 20:42:51 26° NW 20:42:51 26° NW
